It's Saturday,
February 27th, 2021
User not logged in
[Run Race Header Image][Run Race logo]
  
Race webcasting is attempted by race directors and their support staff. Please remember that conditions under which they're working may make it difficult to post timely webcast updates... your interest and patience is appreciated!
Race Information
Race Name:Kettle 100 Endurance Runs - 2011
Location:LaGrange
State:Wisconsin, United States
 button: button: Webcast Autoplay
Event Information
Name of Event:Kettle 100 solo
Distance:100 Miles
Started Date/Time:Saturday June 4th, 2011, 5:59:55.32 am
button: Assign Numbers 

Event Information
Name of Event:Kettle 100 solo
Distance:100 Kilometers
Started Date/Time:Saturday June 4th, 2011, 5:59:55.32 am
button: Assign Numbers  
Checkpoint:Emma Carlin Inbound
Distance:47.4 Miles
Gun Start Time:Saturday June 4th, 2011 5:59:55.32 am
Calculate Chip Start Time:< not set >
Y or N... Calculate splits based upon participant chip start time?
Allow Early Chip Start Time:< not set >
Y or N... Allow participants a chip start time prior to gun start?
Pos Race
Number
NameAgeSexTimePace 
1133Joshua Wopata29M6:37:18.88:22.9
2229Jeff Friedman27M8:04:55.210:13.8
3257Michael Quaranto33M8:11:15.610:21.8
4228Gordon Freeman26M8:22:10.210:35.7
5250adam mcroberts36M8:31:01.210:46.9
6202Matt Aro32M8:34:43.910:51.6
7210John Cash37M8:46:19.311:06.2
8260steven sjolund60M9:25:21.111:55.6
9238Stuart Johnson51M9:25:46.711:56.2
10201Lucia Alzaga35F9:42:00.612:16.7
11209Bruce Carriedo53M9:45:36.312:21.3
12220Scott DeWitt33M10:03:32.112:44.0
13214Matthew Condron44M10:03:37.812:44.1
14267Steve Wessel55M10:10:17.212:52.5
15203Alec Bath41M10:19:52.613:04.7
16216Shelley Cook36F10:19:53.413:04.7
17268Paul Wilkerson35M10:25:21.613:11.6
18226Darren Fortney43M10:25:58.013:12.4
19235William Hutchinson41M10:33:06.413:21.4
20236piotr janczyk39M10:42:34.313:33.4
21252Danny Miller31M10:43:40.913:34.8
22223Steve Emmert43M10:54:01.113:47.9
23245Maureen Mahr32F10:58:25.113:53.4
24270Brian Woods46M10:58:26.913:53.5
25232Michele Hartwig44F11:04:28.714:01.1
26254Mark Nowotny51M11:04:48.014:01.5
27261Tyler Stewart22M11:31:17.214:35.0
28241Mark Kasmer29M11:51:03.115:00.1
29208Bonnie Busch53F12:01:29.215:13.3
30213Elizabeth Coll48F12:03:54.415:16.3
31211Katie Cech36F12:08:33.415:22.2
32244Craig LeBlanc42M12:08:38.615:22.3
33225Mary Flaws44F12:13:49.815:28.9
34231Dennis Hanna55M12:13:50.115:28.9
35221kay drew48F12:14:42.015:30.0
36251Lee Meyer50M12:16:53.115:32.8
37206Kelcy Boettcher34F12:26:26.215:44.9
38233Lynn Hawbaker62M12:39:32.216:01.4
39237Paul Johnson25M13:02:06.916:30.0
40264Gary Tinker47M13:11:22.016:41.7
41222Steve Eich46M13:11:24.416:41.8
42253Jim Muresan46M13:27:01.017:01.5
43256Frank Powers51M13:31:02.917:06.6
44217Donna Creditor50F13:36:52.917:14.0
45227Mo Fraley48F14:00:59.517:44.5
46249Katie McCullough42F14:00:59.817:44.6

Event Information
Name of Event:Kettle 100 relay
Distance:100 Miles
Started Date/Time:Saturday June 4th, 2011, 5:59:55.32 am
button: Assign Numbers 

Event Information
Name of Event:Kettle 38 night fun run
Distance:38 Miles
Started Date/Time:Saturday June 4th, 2011, 7:59:58.00 pm
button: Assign Numbers 
2004-2021 : All rights reserved
Terms and Conditions